Weather History for KGEY - August, 2014

Change the Weather History Date:

Tuesday, August 12, 2014

  Actual Average Record
Temperature  
Mean Temperature 79 °F 73 °F  
Max Temperature 99 °F 91 °F 103 °F (2007)
Min Temperature 58 °F 56 °F 45 °F (2004)
Degree Days  
Heating Degree Days 0 0  
Month to date heating degree days 0 0  
Since 1 June heating degree days 56 76  
Since 1 July heating degree days 0 6  
Cooling Degree Days 14 9  
Month to date cooling degree days 124 113  
Year to date cooling degree days 559 516  
Since 1 June cooling degree days 517 496  
Growing Degree Days 28 (Base 50)    
Moisture  
Dew Point 42 °F    
Average Humidity 39    
Maximum Humidity 67    
Minimum Humidity 10    
Precipitation  
Precipitation 0.00 in 0.01 in 0.04 in (2005)
Month to date precipitation T 0.11  
Year to date precipitation 2.85 5.14  
Sea Level Pressure  
Sea Level Pressure 29.92 in    
Wind  
Wind Speed 4 mph (SSE)    
Max Wind Speed 22 mph    
Max Gust Speed 26 mph    
Visibility 10 miles    
Events      
T = Trace of Precipitation, MM = Missing Value Source: NWS Daily Summary

Daily Weather History Graph

Daily Weather History Graph

Search for Another Location

Airport or City:

Trip Planner

Search our weather history database for the weather conditions in past years. The results will help you decide how hot, cold, wet, or windy it might be!

Date:

Astronomy

Aug. 12, 2014 Rise Set
Actual Time 6:11 AM MDT 8:22 PM MDT
Civil Twilight 5:39 AM MDT 8:54 PM MDT
Nautical Twilight 5:00 AM MDT 9:33 PM MDT
Astronomical Twilight 4:16 AM MDT 10:16 PM MDT
Moon 9:22 PM MDT (8/12) 8:40 AM MDT (8/12)
Length of Visible Light 15h 14m
Length of Day
14h 10m
Waning Gibbous, 94% of the Moon is Illuminated
Aug 12
Waning Gibbous
Aug 17
Last Quarter
Aug 25
New
Sep 2
First Quarter
Sep 8
Full

Hourly Weather History & Observations

Time (MDT) Temp. Dew Point Humidity Pressure Visibility Wind Dir Wind Speed Gust Speed Precip Events Conditions
12:53 AM 71.1 °F 46.9 °F 42% 30.01 in 10.0 mi SSE 5.8 mph - N/A   Clear
1:53 AM 71.1 °F 46.0 °F 41% 30.01 in 10.0 mi Calm Calm - N/A   Clear
3:53 AM 63.0 °F 46.0 °F 54% 30.01 in 10.0 mi South 4.6 mph - N/A   Clear
4:53 AM 63.0 °F 48.0 °F 58% 30.01 in 10.0 mi Calm Calm - N/A   Clear
6:53 AM 59.0 °F 48.0 °F 67% 30.04 in 10.0 mi South 3.5 mph - N/A   Clear
7:53 AM 63.0 °F 48.0 °F 58% 30.04 in 10.0 mi SSE 3.5 mph - N/A   Clear
8:53 AM 69.1 °F 48.9 °F 49% 30.03 in 10.0 mi Calm Calm - N/A   Clear
9:53 AM 77.0 °F 46.0 °F 33% 30.00 in 10.0 mi Calm Calm - N/A   Clear
11:53 AM 87.1 °F 43.0 °F 21% 29.96 in 10.0 mi Calm Calm - N/A   Clear
12:53 PM 91.0 °F 43.0 °F 19% 29.94 in 10.0 mi SE 5.8 mph - N/A   Clear
1:53 PM 95.0 °F 37.0 °F 13% 29.90 in 10.0 mi Variable 6.9 mph - N/A   Clear
2:53 PM 97.0 °F 36.0 °F 12% 29.88 in 10.0 mi East 6.9 mph - N/A   Clear
3:53 PM 98.1 °F 33.1 °F 10% 29.85 in 10.0 mi Variable 3.5 mph - N/A   Clear
4:53 PM 98.1 °F 32.0 °F 10% 29.83 in 10.0 mi SSE 4.6 mph - N/A   Clear
5:53 PM 98.1 °F 33.1 °F 10% 29.82 in 10.0 mi South 3.5 mph - N/A   Clear
6:53 PM 95.0 °F 36.0 °F 13% 29.82 in 10.0 mi Calm Calm - N/A   Clear
7:53 PM 90.0 °F 48.0 °F 24% 29.81 in 10.0 mi Calm Calm - N/A   Clear
8:53 PM 87.1 °F 41.0 °F 20% 29.84 in 10.0 mi WNW 15.0 mph - N/A   Clear
9:53 PM 86.0 °F 39.9 °F 20% 29.84 in 10.0 mi NNW 16.1 mph 23.0 mph N/A   Clear
10:53 PM 82.9 °F 41.0 °F 23% 29.84 in 10.0 mi West 10.4 mph - N/A   Clear